Index of /20260503/WXO-DD/model_rdps/10km/18/017
Name Last modified Size Description
Parent Directory -
20260503T18Z_MSC_RDPS_AbsoluteVorticity_IsbL-0250_RLatLon0.09_PT017H.grib2 2026-05-03 20:44 616K
20260503T18Z_MSC_RDPS_AbsoluteVorticity_IsbL-0500_RLatLon0.09_PT017H.grib2 2026-05-03 20:44 576K
20260503T18Z_MSC_RDPS_AbsoluteVorticity_IsbL-0700_RLatLon0.09_PT017H.grib2 2026-05-03 20:44 622K
20260503T18Z_MSC_RDPS_AbsoluteVorticity_IsbL-0850_RLatLon0.09_PT017H.grib2 2026-05-03 20:44 801K
20260503T18Z_MSC_RDPS_AirTemp_AGL-120m_RLatLon0.09_PT017H.grib2 2026-05-03 20:44 381K
20260503T18Z_MSC_RDPS_AirTemp_AGL-2m_RLatLon0.09_PT017H.grib2 2026-05-03 20:44 641K
20260503T18Z_MSC_RDPS_AirTemp_AGL-40m_RLatLon0.09_PT017H.grib2 2026-05-03 20:44 398K
20260503T18Z_MSC_RDPS_AirTemp_AGL-80m_RLatLon0.09_PT017H.grib2 2026-05-03 20:44 389K
20260503T18Z_MSC_RDPS_AirTemp_IsbL-0001_RLatLon0.09_PT017H.grib2 2026-05-03 20:44 304K
20260503T18Z_MSC_RDPS_AirTemp_IsbL-0005_RLatLon0.09_PT017H.grib2 2026-05-03 20:44 286K
20260503T18Z_MSC_RDPS_AirTemp_IsbL-0010_RLatLon0.09_PT017H.grib2 2026-05-03 20:44 298K
20260503T18Z_MSC_RDPS_AirTemp_IsbL-0020_RLatLon0.09_PT017H.grib2 2026-05-03 20:44 411K
20260503T18Z_MSC_RDPS_AirTemp_IsbL-0030_RLatLon0.09_PT017H.grib2 2026-05-03 20:44 335K
20260503T18Z_MSC_RDPS_AirTemp_IsbL-0050_RLatLon0.09_PT017H.grib2 2026-05-03 20:44 316K
20260503T18Z_MSC_RDPS_AirTemp_IsbL-0100_RLatLon0.09_PT017H.grib2 2026-05-03 20:44 429K
20260503T18Z_MSC_RDPS_AirTemp_IsbL-0150_RLatLon0.09_PT017H.grib2 2026-05-03 20:44 421K
20260503T18Z_MSC_RDPS_AirTemp_IsbL-0175_RLatLon0.09_PT017H.grib2 2026-05-03 20:44 411K
20260503T18Z_MSC_RDPS_AirTemp_IsbL-0200_RLatLon0.09_PT017H.grib2 2026-05-03 20:44 417K
20260503T18Z_MSC_RDPS_AirTemp_IsbL-0225_RLatLon0.09_PT017H.grib2 2026-05-03 20:44 422K
20260503T18Z_MSC_RDPS_AirTemp_IsbL-0250_RLatLon0.09_PT017H.grib2 2026-05-03 20:44 429K
20260503T18Z_MSC_RDPS_AirTemp_IsbL-0275_RLatLon0.09_PT017H.grib2 2026-05-03 20:44 409K
20260503T18Z_MSC_RDPS_AirTemp_IsbL-0300_RLatLon0.09_PT017H.grib2 2026-05-03 20:44 415K
20260503T18Z_MSC_RDPS_AirTemp_IsbL-0350_RLatLon0.09_PT017H.grib2 2026-05-03 20:44 431K
20260503T18Z_MSC_RDPS_AirTemp_IsbL-0400_RLatLon0.09_PT017H.grib2 2026-05-03 20:44 435K
20260503T18Z_MSC_RDPS_AirTemp_IsbL-0450_RLatLon0.09_PT017H.grib2 2026-05-03 20:44 407K
20260503T18Z_MSC_RDPS_AirTemp_IsbL-0500_RLatLon0.09_PT017H.grib2 2026-05-03 20:44 453K
20260503T18Z_MSC_RDPS_AirTemp_IsbL-0550_RLatLon0.09_PT017H.grib2 2026-05-03 20:44 471K
20260503T18Z_MSC_RDPS_AirTemp_IsbL-0600_RLatLon0.09_PT017H.grib2 2026-05-03 20:44 452K
20260503T18Z_MSC_RDPS_AirTemp_IsbL-0650_RLatLon0.09_PT017H.grib2 2026-05-03 20:44 465K
20260503T18Z_MSC_RDPS_AirTemp_IsbL-0700_RLatLon0.09_PT017H.grib2 2026-05-03 20:44 489K
20260503T18Z_MSC_RDPS_AirTemp_IsbL-0750_RLatLon0.09_PT017H.grib2 2026-05-03 20:44 528K
20260503T18Z_MSC_RDPS_AirTemp_IsbL-0800_RLatLon0.09_PT017H.grib2 2026-05-03 20:44 587K
20260503T18Z_MSC_RDPS_AirTemp_IsbL-0850_RLatLon0.09_PT017H.grib2 2026-05-03 20:44 649K
20260503T18Z_MSC_RDPS_AirTemp_IsbL-0875_RLatLon0.09_PT017H.grib2 2026-05-03 20:44 666K
20260503T18Z_MSC_RDPS_AirTemp_IsbL-0900_RLatLon0.09_PT017H.grib2 2026-05-03 20:44 671K
20260503T18Z_MSC_RDPS_AirTemp_IsbL-0925_RLatLon0.09_PT017H.grib2 2026-05-03 20:44 530K
20260503T18Z_MSC_RDPS_AirTemp_IsbL-0950_RLatLon0.09_PT017H.grib2 2026-05-03 20:44 530K
20260503T18Z_MSC_RDPS_AirTemp_IsbL-0970_RLatLon0.09_PT017H.grib2 2026-05-03 20:44 523K
20260503T18Z_MSC_RDPS_AirTemp_IsbL-0985_RLatLon0.09_PT017H.grib2 2026-05-03 20:44 510K
20260503T18Z_MSC_RDPS_AirTemp_IsbL-1000_RLatLon0.09_PT017H.grib2 2026-05-03 20:44 497K
20260503T18Z_MSC_RDPS_AirTemp_IsbL-1015_RLatLon0.09_PT017H.grib2 2026-05-03 20:44 498K
20260503T18Z_MSC_RDPS_Albedo_Sfc_RLatLon0.09_PT017H.grib2 2026-05-03 20:44 153K
20260503T18Z_MSC_RDPS_CAPE_Sfc_RLatLon0.09_PT017H.grib2 2026-05-03 20:44 1.6M
20260503T18Z_MSC_RDPS_CIN_Sfc_RLatLon0.09_PT017H.grib2 2026-05-03 20:44 1.1M
20260503T18Z_MSC_RDPS_CloudWater_EAtm_RLatLon0.09_PT017H.grib2 2026-05-03 20:44 222K
20260503T18Z_MSC_RDPS_ConvectivePrecip-Accum_Sfc_RLatLon0.09_PT017H.grib2 2026-05-03 20:44 765K
20260503T18Z_MSC_RDPS_DewPointDepression_AGL-2m_RLatLon0.09_PT017H.grib2 2026-05-03 20:44 401K
20260503T18Z_MSC_RDPS_DewPointDepression_IsbL-0001_RLatLon0.09_PT017H.grib2 2026-05-03 20:44 193
20260503T18Z_MSC_RDPS_DewPointDepression_IsbL-0005_RLatLon0.09_PT017H.grib2 2026-05-03 20:44 193
20260503T18Z_MSC_RDPS_DewPointDepression_IsbL-0010_RLatLon0.09_PT017H.grib2 2026-05-03 20:44 193
20260503T18Z_MSC_RDPS_DewPointDepression_IsbL-0020_RLatLon0.09_PT017H.grib2 2026-05-03 20:44 193
20260503T18Z_MSC_RDPS_DewPointDepression_IsbL-0030_RLatLon0.09_PT017H.grib2 2026-05-03 20:44 193
20260503T18Z_MSC_RDPS_DewPointDepression_IsbL-0050_RLatLon0.09_PT017H.grib2 2026-05-03 20:44 89K
20260503T18Z_MSC_RDPS_DewPointDepression_IsbL-0100_RLatLon0.09_PT017H.grib2 2026-05-03 20:44 118K
20260503T18Z_MSC_RDPS_DewPointDepression_IsbL-0150_RLatLon0.09_PT017H.grib2 2026-05-03 20:44 140K
20260503T18Z_MSC_RDPS_DewPointDepression_IsbL-0175_RLatLon0.09_PT017H.grib2 2026-05-03 20:44 176K
20260503T18Z_MSC_RDPS_DewPointDepression_IsbL-0200_RLatLon0.09_PT017H.grib2 2026-05-03 20:44 220K
20260503T18Z_MSC_RDPS_DewPointDepression_IsbL-0225_RLatLon0.09_PT017H.grib2 2026-05-03 20:44 264K
20260503T18Z_MSC_RDPS_DewPointDepression_IsbL-0250_RLatLon0.09_PT017H.grib2 2026-05-03 20:44 303K
20260503T18Z_MSC_RDPS_DewPointDepression_IsbL-0275_RLatLon0.09_PT017H.grib2 2026-05-03 20:44 312K
20260503T18Z_MSC_RDPS_DewPointDepression_IsbL-0300_RLatLon0.09_PT017H.grib2 2026-05-03 20:44 329K
20260503T18Z_MSC_RDPS_DewPointDepression_IsbL-0350_RLatLon0.09_PT017H.grib2 2026-05-03 20:44 340K
20260503T18Z_MSC_RDPS_DewPointDepression_IsbL-0400_RLatLon0.09_PT017H.grib2 2026-05-03 20:44 346K
20260503T18Z_MSC_RDPS_DewPointDepression_IsbL-0450_RLatLon0.09_PT017H.grib2 2026-05-03 20:44 346K
20260503T18Z_MSC_RDPS_DewPointDepression_IsbL-0500_RLatLon0.09_PT017H.grib2 2026-05-03 20:44 350K
20260503T18Z_MSC_RDPS_DewPointDepression_IsbL-0550_RLatLon0.09_PT017H.grib2 2026-05-03 20:44 357K
20260503T18Z_MSC_RDPS_DewPointDepression_IsbL-0600_RLatLon0.09_PT017H.grib2 2026-05-03 20:44 368K
20260503T18Z_MSC_RDPS_DewPointDepression_IsbL-0650_RLatLon0.09_PT017H.grib2 2026-05-03 20:44 377K
20260503T18Z_MSC_RDPS_DewPointDepression_IsbL-0700_RLatLon0.09_PT017H.grib2 2026-05-03 20:44 386K
20260503T18Z_MSC_RDPS_DewPointDepression_IsbL-0750_RLatLon0.09_PT017H.grib2 2026-05-03 20:44 405K
20260503T18Z_MSC_RDPS_DewPointDepression_IsbL-0800_RLatLon0.09_PT017H.grib2 2026-05-03 20:44 446K
20260503T18Z_MSC_RDPS_DewPointDepression_IsbL-0850_RLatLon0.09_PT017H.grib2 2026-05-03 20:44 477K
20260503T18Z_MSC_RDPS_DewPointDepression_IsbL-0875_RLatLon0.09_PT017H.grib2 2026-05-03 20:44 473K
20260503T18Z_MSC_RDPS_DewPointDepression_IsbL-0900_RLatLon0.09_PT017H.grib2 2026-05-03 20:44 460K
20260503T18Z_MSC_RDPS_DewPointDepression_IsbL-0925_RLatLon0.09_PT017H.grib2 2026-05-03 20:44 445K
20260503T18Z_MSC_RDPS_DewPointDepression_IsbL-0950_RLatLon0.09_PT017H.grib2 2026-05-03 20:44 442K
20260503T18Z_MSC_RDPS_DewPointDepression_IsbL-0970_RLatLon0.09_PT017H.grib2 2026-05-03 20:44 437K
20260503T18Z_MSC_RDPS_DewPointDepression_IsbL-0985_RLatLon0.09_PT017H.grib2 2026-05-03 20:44 432K
20260503T18Z_MSC_RDPS_DewPointDepression_IsbL-1000_RLatLon0.09_PT017H.grib2 2026-05-03 20:44 430K
20260503T18Z_MSC_RDPS_DewPointDepression_IsbL-1015_RLatLon0.09_PT017H.grib2 2026-05-03 20:44 422K
20260503T18Z_MSC_RDPS_DewPoint_AGL-2m_RLatLon0.09_PT017H.grib2 2026-05-03 20:44 310K
20260503T18Z_MSC_RDPS_DownwardLongwaveRadiationFlux-Accum_Sfc_RLatLon0.09_PT017H.grib2 2026-05-03 20:44 396K
20260503T18Z_MSC_RDPS_DownwardShortwaveRadiationFlux-Accum_NTAtm_RLatLon0.09_PT017H.grib2 2026-05-03 20:44 100K
20260503T18Z_MSC_RDPS_DownwardShortwaveRadiationFlux-Accum_Sfc_RLatLon0.09_PT017H.grib2 2026-05-03 20:44 558K
20260503T18Z_MSC_RDPS_FreezingRain-Accum1h_Sfc_RLatLon0.09_PT017H.grib2 2026-05-03 20:44 42K
20260503T18Z_MSC_RDPS_FreezingRain-Accum_Sfc_RLatLon0.09_PT017H.grib2 2026-05-03 20:44 87K
20260503T18Z_MSC_RDPS_GeopotentialHeight_IsbL-0001_RLatLon0.09_PT017H.grib2 2026-05-03 20:44 318K
20260503T18Z_MSC_RDPS_GeopotentialHeight_IsbL-0005_RLatLon0.09_PT017H.grib2 2026-05-03 20:44 311K
20260503T18Z_MSC_RDPS_GeopotentialHeight_IsbL-0010_RLatLon0.09_PT017H.grib2 2026-05-03 20:44 311K
20260503T18Z_MSC_RDPS_GeopotentialHeight_IsbL-0020_RLatLon0.09_PT017H.grib2 2026-05-03 20:44 409K
20260503T18Z_MSC_RDPS_GeopotentialHeight_IsbL-0030_RLatLon0.09_PT017H.grib2 2026-05-03 20:44 412K
20260503T18Z_MSC_RDPS_GeopotentialHeight_IsbL-0050_RLatLon0.09_PT017H.grib2 2026-05-03 20:44 316K
20260503T18Z_MSC_RDPS_GeopotentialHeight_IsbL-0100_RLatLon0.09_PT017H.grib2 2026-05-03 20:44 292K
20260503T18Z_MSC_RDPS_GeopotentialHeight_IsbL-0150_RLatLon0.09_PT017H.grib2 2026-05-03 20:44 233K
20260503T18Z_MSC_RDPS_GeopotentialHeight_IsbL-0175_RLatLon0.09_PT017H.grib2 2026-05-03 20:44 235K
20260503T18Z_MSC_RDPS_GeopotentialHeight_IsbL-0200_RLatLon0.09_PT017H.grib2 2026-05-03 20:44 268K
20260503T18Z_MSC_RDPS_GeopotentialHeight_IsbL-0225_RLatLon0.09_PT017H.grib2 2026-05-03 20:44 269K
20260503T18Z_MSC_RDPS_GeopotentialHeight_IsbL-0250_RLatLon0.09_PT017H.grib2 2026-05-03 20:44 270K
20260503T18Z_MSC_RDPS_GeopotentialHeight_IsbL-0275_RLatLon0.09_PT017H.grib2 2026-05-03 20:44 240K
20260503T18Z_MSC_RDPS_GeopotentialHeight_IsbL-0300_RLatLon0.09_PT017H.grib2 2026-05-03 20:44 240K
20260503T18Z_MSC_RDPS_GeopotentialHeight_IsbL-0350_RLatLon0.09_PT017H.grib2 2026-05-03 20:44 235K
20260503T18Z_MSC_RDPS_GeopotentialHeight_IsbL-0400_RLatLon0.09_PT017H.grib2 2026-05-03 20:44 307K
20260503T18Z_MSC_RDPS_GeopotentialHeight_IsbL-0450_RLatLon0.09_PT017H.grib2 2026-05-03 20:44 302K
20260503T18Z_MSC_RDPS_GeopotentialHeight_IsbL-0500_RLatLon0.09_PT017H.grib2 2026-05-03 20:44 298K
20260503T18Z_MSC_RDPS_GeopotentialHeight_IsbL-0550_RLatLon0.09_PT017H.grib2 2026-05-03 20:44 294K
20260503T18Z_MSC_RDPS_GeopotentialHeight_IsbL-0600_RLatLon0.09_PT017H.grib2 2026-05-03 20:44 290K
20260503T18Z_MSC_RDPS_GeopotentialHeight_IsbL-0650_RLatLon0.09_PT017H.grib2 2026-05-03 20:44 260K
20260503T18Z_MSC_RDPS_GeopotentialHeight_IsbL-0700_RLatLon0.09_PT017H.grib2 2026-05-03 20:44 258K
20260503T18Z_MSC_RDPS_GeopotentialHeight_IsbL-0750_RLatLon0.09_PT017H.grib2 2026-05-03 20:44 346K
20260503T18Z_MSC_RDPS_GeopotentialHeight_IsbL-0800_RLatLon0.09_PT017H.grib2 2026-05-03 20:44 354K
20260503T18Z_MSC_RDPS_GeopotentialHeight_IsbL-0850_RLatLon0.09_PT017H.grib2 2026-05-03 20:44 365K
20260503T18Z_MSC_RDPS_GeopotentialHeight_IsbL-0875_RLatLon0.09_PT017H.grib2 2026-05-03 20:44 367K
20260503T18Z_MSC_RDPS_GeopotentialHeight_IsbL-0900_RLatLon0.09_PT017H.grib2 2026-05-03 20:44 369K
20260503T18Z_MSC_RDPS_GeopotentialHeight_IsbL-0925_RLatLon0.09_PT017H.grib2 2026-05-03 20:44 371K
20260503T18Z_MSC_RDPS_GeopotentialHeight_IsbL-0950_RLatLon0.09_PT017H.grib2 2026-05-03 20:44 287K
20260503T18Z_MSC_RDPS_GeopotentialHeight_IsbL-0970_RLatLon0.09_PT017H.grib2 2026-05-03 20:44 292K
20260503T18Z_MSC_RDPS_GeopotentialHeight_IsbL-0985_RLatLon0.09_PT017H.grib2 2026-05-03 20:44 298K
20260503T18Z_MSC_RDPS_GeopotentialHeight_IsbL-1000_RLatLon0.09_PT017H.grib2 2026-05-03 20:44 307K
20260503T18Z_MSC_RDPS_GeopotentialHeight_IsbL-1015_RLatLon0.09_PT017H.grib2 2026-05-03 20:44 320K
20260503T18Z_MSC_RDPS_Humidex_Sfc_RLatLon0.09_PT017H.grib2 2026-05-03 20:44 2.4M
20260503T18Z_MSC_RDPS_IcePellets-Accum1h_Sfc_RLatLon0.09_PT017H.grib2 2026-05-03 20:44 3.9K
20260503T18Z_MSC_RDPS_IcePellets-Accum_Sfc_RLatLon0.09_PT017H.grib2 2026-05-03 20:44 7.9K
20260503T18Z_MSC_RDPS_KIndex_Sfc_RLatLon0.09_PT017H.grib2 2026-05-03 20:44 2.4M
20260503T18Z_MSC_RDPS_LatentHeatNetFlux_Sfc_RLatLon0.09_PT017H.grib2 2026-05-03 20:44 425K
20260503T18Z_MSC_RDPS_LiftedIndex-MU-VT_IsbL-0500_RLatLon0.09_PT017H.grib2 2026-05-03 20:44 2.4M
20260503T18Z_MSC_RDPS_NetLongwaveRadiationFlux-Accum_Sfc_RLatLon0.09_PT017H.grib2 2026-05-03 20:44 531K
20260503T18Z_MSC_RDPS_NetShortwaveRadiationFlux-Accum_Sfc_RLatLon0.09_PT017H.grib2 2026-05-03 20:44 551K
20260503T18Z_MSC_RDPS_PlanetaryBoundaryLayerHeight_Sfc_RLatLon0.09_PT017H.grib2 2026-05-03 20:44 1.1M
20260503T18Z_MSC_RDPS_Precip-Accum1h_Sfc_RLatLon0.09_PT017H.grib2 2026-05-03 20:44 1.3M
20260503T18Z_MSC_RDPS_Precip-Accum_Sfc_RLatLon0.09_PT017H.grib2 2026-05-03 20:44 1.9M
20260503T18Z_MSC_RDPS_PrecipRate_Sfc_RLatLon0.09_PT017H.grib2 2026-05-03 20:44 174K
20260503T18Z_MSC_RDPS_PrecipType-Instant_Sfc_RLatLon0.09_PT017H.grib2 2026-05-03 20:44 621K
20260503T18Z_MSC_RDPS_Pressure-Trend3h_Sfc_RLatLon0.09_PT017H.grib2 2026-05-03 20:44 1.2M
20260503T18Z_MSC_RDPS_Pressure_MSL_RLatLon0.09_PT017H.grib2 2026-05-03 20:44 331K
20260503T18Z_MSC_RDPS_Pressure_PVU-1.5_RLatLon0.09_PT017H.grib2 2026-05-03 20:44 2.3M
20260503T18Z_MSC_RDPS_Pressure_PVU-1_RLatLon0.09_PT017H.grib2 2026-05-03 20:44 2.4M
20260503T18Z_MSC_RDPS_Pressure_PVU-2_RLatLon0.09_PT017H.grib2 2026-05-03 20:44 2.4M
20260503T18Z_MSC_RDPS_Pressure_Sfc_RLatLon0.09_PT017H.grib2 2026-05-03 20:44 501K
20260503T18Z_MSC_RDPS_RadiativeTemp_Sfc_RLatLon0.09_PT017H.grib2 2026-05-03 20:44 303K
20260503T18Z_MSC_RDPS_Rain-Accum1h_Sfc_RLatLon0.09_PT017H.grib2 2026-05-03 20:44 662K
20260503T18Z_MSC_RDPS_Rain-Accum_Sfc_RLatLon0.09_PT017H.grib2 2026-05-03 20:44 1.4M
20260503T18Z_MSC_RDPS_RelativeHumidity_AGL-2m_RLatLon0.09_PT017H.grib2 2026-05-03 20:44 1.0M
20260503T18Z_MSC_RDPS_RelativeHumidity_IsbL-0010_RLatLon0.09_PT017H.grib2 2026-05-03 20:44 536K
20260503T18Z_MSC_RDPS_RelativeHumidity_IsbL-0020_RLatLon0.09_PT017H.grib2 2026-05-03 20:44 677K
20260503T18Z_MSC_RDPS_RelativeHumidity_IsbL-0030_RLatLon0.09_PT017H.grib2 2026-05-03 20:44 606K
20260503T18Z_MSC_RDPS_RelativeHumidity_IsbL-0050_RLatLon0.09_PT017H.grib2 2026-05-03 20:44 238K
20260503T18Z_MSC_RDPS_RelativeHumidity_IsbL-0100_RLatLon0.09_PT017H.grib2 2026-05-03 20:44 285K
20260503T18Z_MSC_RDPS_RelativeHumidity_IsbL-0150_RLatLon0.09_PT017H.grib2 2026-05-03 20:44 410K
20260503T18Z_MSC_RDPS_RelativeHumidity_IsbL-0175_RLatLon0.09_PT017H.grib2 2026-05-03 20:44 472K
20260503T18Z_MSC_RDPS_RelativeHumidity_IsbL-0200_RLatLon0.09_PT017H.grib2 2026-05-03 20:44 556K
20260503T18Z_MSC_RDPS_RelativeHumidity_IsbL-0225_RLatLon0.09_PT017H.grib2 2026-05-03 20:44 628K
20260503T18Z_MSC_RDPS_RelativeHumidity_IsbL-0250_RLatLon0.09_PT017H.grib2 2026-05-03 20:44 697K
20260503T18Z_MSC_RDPS_RelativeHumidity_IsbL-0275_RLatLon0.09_PT017H.grib2 2026-05-03 20:44 725K
20260503T18Z_MSC_RDPS_RelativeHumidity_IsbL-0300_RLatLon0.09_PT017H.grib2 2026-05-03 20:44 762K
20260503T18Z_MSC_RDPS_RelativeHumidity_IsbL-0350_RLatLon0.09_PT017H.grib2 2026-05-03 20:44 788K
20260503T18Z_MSC_RDPS_RelativeHumidity_IsbL-0400_RLatLon0.09_PT017H.grib2 2026-05-03 20:44 796K
20260503T18Z_MSC_RDPS_RelativeHumidity_IsbL-0450_RLatLon0.09_PT017H.grib2 2026-05-03 20:44 793K
20260503T18Z_MSC_RDPS_RelativeHumidity_IsbL-0500_RLatLon0.09_PT017H.grib2 2026-05-03 20:44 808K
20260503T18Z_MSC_RDPS_RelativeHumidity_IsbL-0550_RLatLon0.09_PT017H.grib2 2026-05-03 20:44 824K
20260503T18Z_MSC_RDPS_RelativeHumidity_IsbL-0600_RLatLon0.09_PT017H.grib2 2026-05-03 20:44 835K
20260503T18Z_MSC_RDPS_RelativeHumidity_IsbL-0650_RLatLon0.09_PT017H.grib2 2026-05-03 20:44 861K
20260503T18Z_MSC_RDPS_RelativeHumidity_IsbL-0700_RLatLon0.09_PT017H.grib2 2026-05-03 20:44 878K
20260503T18Z_MSC_RDPS_RelativeHumidity_IsbL-0750_RLatLon0.09_PT017H.grib2 2026-05-03 20:44 918K
20260503T18Z_MSC_RDPS_RelativeHumidity_IsbL-0800_RLatLon0.09_PT017H.grib2 2026-05-03 20:44 1.0M
20260503T18Z_MSC_RDPS_RelativeHumidity_IsbL-0850_RLatLon0.09_PT017H.grib2 2026-05-03 20:44 1.0M
20260503T18Z_MSC_RDPS_RelativeHumidity_IsbL-0875_RLatLon0.09_PT017H.grib2 2026-05-03 20:44 1.1M
20260503T18Z_MSC_RDPS_RelativeHumidity_IsbL-0900_RLatLon0.09_PT017H.grib2 2026-05-03 20:44 1.1M
20260503T18Z_MSC_RDPS_RelativeHumidity_IsbL-0925_RLatLon0.09_PT017H.grib2 2026-05-03 20:44 1.1M
20260503T18Z_MSC_RDPS_RelativeHumidity_IsbL-0950_RLatLon0.09_PT017H.grib2 2026-05-03 20:44 1.1M
20260503T18Z_MSC_RDPS_RelativeHumidity_IsbL-0970_RLatLon0.09_PT017H.grib2 2026-05-03 20:44 1.1M
20260503T18Z_MSC_RDPS_RelativeHumidity_IsbL-0985_RLatLon0.09_PT017H.grib2 2026-05-03 20:44 1.0M
20260503T18Z_MSC_RDPS_RelativeHumidity_IsbL-1000_RLatLon0.09_PT017H.grib2 2026-05-03 20:44 1.0M
20260503T18Z_MSC_RDPS_RelativeHumidity_IsbL-1015_RLatLon0.09_PT017H.grib2 2026-05-03 20:44 1.0M
20260503T18Z_MSC_RDPS_Runoff-Accum_Sfc_RLatLon0.09_PT017H.grib2 2026-05-03 20:44 64K
20260503T18Z_MSC_RDPS_SWEATIndex_Sfc_RLatLon0.09_PT017H.grib2 2026-05-03 20:44 2.6M
20260503T18Z_MSC_RDPS_SeeingIndex_EAtm_RLatLon0.09_PT017H.grib2 2026-05-03 20:44 1.0M
20260503T18Z_MSC_RDPS_SensibleHeatNetFlux_Sfc_RLatLon0.09_PT017H.grib2 2026-05-03 20:44 302K
20260503T18Z_MSC_RDPS_ShowalterIndex_IsbL-0500_RLatLon0.09_PT017H.grib2 2026-05-03 20:44 2.6M
20260503T18Z_MSC_RDPS_SkyTransparencyIndex_EAtm_RLatLon0.09_PT017H.grib2 2026-05-03 20:44 724K
20260503T18Z_MSC_RDPS_Snow-Accum1h_Sfc_RLatLon0.09_PT017H.grib2 2026-05-03 20:44 530K
20260503T18Z_MSC_RDPS_Snow-Accum_Sfc_RLatLon0.09_PT017H.grib2 2026-05-03 20:44 689K
20260503T18Z_MSC_RDPS_SnowDensity_Sfc_RLatLon0.09_PT017H.grib2 2026-05-03 20:44 167K
20260503T18Z_MSC_RDPS_SnowDepth_Sfc_RLatLon0.09_PT017H.grib2 2026-05-03 20:44 648K
20260503T18Z_MSC_RDPS_SoilTemp_DBS-0to10cm_RLatLon0.09_PT017H.grib2 2026-05-03 20:44 219K
20260503T18Z_MSC_RDPS_SoilTemp_Sfc_RLatLon0.09_PT017H.grib2 2026-05-03 20:44 283K
20260503T18Z_MSC_RDPS_SoilVolumetricIceContent_Sfc_RLatLon0.09_PT017H.grib2 2026-05-03 20:44 155K
20260503T18Z_MSC_RDPS_SoilVolumetricWaterContent_DBS-0to10cm_RLatLon0.09_PT017H.grib2 2026-05-03 20:44 275K
20260503T18Z_MSC_RDPS_SoilVolumetricWaterContent_DBS-0to1cm_RLatLon0.09_PT017H.grib2 2026-05-03 20:44 337K
20260503T18Z_MSC_RDPS_SpecificHumidity_AGL-120m_RLatLon0.09_PT017H.grib2 2026-05-03 20:44 493K
20260503T18Z_MSC_RDPS_SpecificHumidity_AGL-2m_RLatLon0.09_PT017H.grib2 2026-05-03 20:44 662K
20260503T18Z_MSC_RDPS_SpecificHumidity_AGL-40m_RLatLon0.09_PT017H.grib2 2026-05-03 20:44 500K
20260503T18Z_MSC_RDPS_SpecificHumidity_AGL-80m_RLatLon0.09_PT017H.grib2 2026-05-03 20:44 495K
20260503T18Z_MSC_RDPS_SpecificHumidity_IsbL-0001_RLatLon0.09_PT017H.grib2 2026-05-03 20:44 392K
20260503T18Z_MSC_RDPS_SpecificHumidity_IsbL-0005_RLatLon0.09_PT017H.grib2 2026-05-03 20:44 372K
20260503T18Z_MSC_RDPS_SpecificHumidity_IsbL-0010_RLatLon0.09_PT017H.grib2 2026-05-03 20:44 403K
20260503T18Z_MSC_RDPS_SpecificHumidity_IsbL-0020_RLatLon0.09_PT017H.grib2 2026-05-03 20:44 383K
20260503T18Z_MSC_RDPS_SpecificHumidity_IsbL-0030_RLatLon0.09_PT017H.grib2 2026-05-03 20:44 377K
20260503T18Z_MSC_RDPS_SpecificHumidity_IsbL-0050_RLatLon0.09_PT017H.grib2 2026-05-03 20:44 379K
20260503T18Z_MSC_RDPS_SpecificHumidity_IsbL-0100_RLatLon0.09_PT017H.grib2 2026-05-03 20:44 545K
20260503T18Z_MSC_RDPS_SpecificHumidity_IsbL-0150_RLatLon0.09_PT017H.grib2 2026-05-03 20:44 449K
20260503T18Z_MSC_RDPS_SpecificHumidity_IsbL-0175_RLatLon0.09_PT017H.grib2 2026-05-03 20:44 436K
20260503T18Z_MSC_RDPS_SpecificHumidity_IsbL-0200_RLatLon0.09_PT017H.grib2 2026-05-03 20:44 460K
20260503T18Z_MSC_RDPS_SpecificHumidity_IsbL-0225_RLatLon0.09_PT017H.grib2 2026-05-03 20:44 465K
20260503T18Z_MSC_RDPS_SpecificHumidity_IsbL-0250_RLatLon0.09_PT017H.grib2 2026-05-03 20:44 529K
20260503T18Z_MSC_RDPS_SpecificHumidity_IsbL-0275_RLatLon0.09_PT017H.grib2 2026-05-03 20:44 489K
20260503T18Z_MSC_RDPS_SpecificHumidity_IsbL-0300_RLatLon0.09_PT017H.grib2 2026-05-03 20:44 460K
20260503T18Z_MSC_RDPS_SpecificHumidity_IsbL-0350_RLatLon0.09_PT017H.grib2 2026-05-03 20:44 457K
20260503T18Z_MSC_RDPS_SpecificHumidity_IsbL-0400_RLatLon0.09_PT017H.grib2 2026-05-03 20:44 532K
20260503T18Z_MSC_RDPS_SpecificHumidity_IsbL-0450_RLatLon0.09_PT017H.grib2 2026-05-03 20:44 576K
20260503T18Z_MSC_RDPS_SpecificHumidity_IsbL-0500_RLatLon0.09_PT017H.grib2 2026-05-03 20:44 509K
20260503T18Z_MSC_RDPS_SpecificHumidity_IsbL-0550_RLatLon0.09_PT017H.grib2 2026-05-03 20:44 562K
20260503T18Z_MSC_RDPS_SpecificHumidity_IsbL-0600_RLatLon0.09_PT017H.grib2 2026-05-03 20:44 630K
20260503T18Z_MSC_RDPS_SpecificHumidity_IsbL-0650_RLatLon0.09_PT017H.grib2 2026-05-03 20:44 548K
20260503T18Z_MSC_RDPS_SpecificHumidity_IsbL-0700_RLatLon0.09_PT017H.grib2 2026-05-03 20:44 588K
20260503T18Z_MSC_RDPS_SpecificHumidity_IsbL-0750_RLatLon0.09_PT017H.grib2 2026-05-03 20:44 642K
20260503T18Z_MSC_RDPS_SpecificHumidity_IsbL-0800_RLatLon0.09_PT017H.grib2 2026-05-03 20:44 722K
20260503T18Z_MSC_RDPS_SpecificHumidity_IsbL-0850_RLatLon0.09_PT017H.grib2 2026-05-03 20:44 811K
20260503T18Z_MSC_RDPS_SpecificHumidity_IsbL-0875_RLatLon0.09_PT017H.grib2 2026-05-03 20:44 834K
20260503T18Z_MSC_RDPS_SpecificHumidity_IsbL-0900_RLatLon0.09_PT017H.grib2 2026-05-03 20:44 841K
20260503T18Z_MSC_RDPS_SpecificHumidity_IsbL-0925_RLatLon0.09_PT017H.grib2 2026-05-03 20:44 838K
20260503T18Z_MSC_RDPS_SpecificHumidity_IsbL-0950_RLatLon0.09_PT017H.grib2 2026-05-03 20:44 841K
20260503T18Z_MSC_RDPS_SpecificHumidity_IsbL-0970_RLatLon0.09_PT017H.grib2 2026-05-03 20:44 696K
20260503T18Z_MSC_RDPS_SpecificHumidity_IsbL-0985_RLatLon0.09_PT017H.grib2 2026-05-03 20:44 687K
20260503T18Z_MSC_RDPS_SpecificHumidity_IsbL-1000_RLatLon0.09_PT017H.grib2 2026-05-03 20:44 683K
20260503T18Z_MSC_RDPS_SpecificHumidity_IsbL-1015_RLatLon0.09_PT017H.grib2 2026-05-03 20:44 674K
20260503T18Z_MSC_RDPS_SpecificHumidity_Sfc_RLatLon0.09_PT017H.grib2 2026-05-03 20:44 293K
20260503T18Z_MSC_RDPS_StormRelativeHelicity_EtaL-10000_RLatLon0.09_PT017H.grib2 2026-05-03 20:44 1.1M
20260503T18Z_MSC_RDPS_StormSeverityIndex_EtaL-10000_RLatLon0.09_PT017H.grib2 2026-05-03 20:44 1.2M
20260503T18Z_MSC_RDPS_Thickness_IsbL-0850to0700_RLatLon0.09_PT017H.grib2 2026-05-03 20:44 179K
20260503T18Z_MSC_RDPS_Thickness_IsbL-1000to0500_RLatLon0.09_PT017H.grib2 2026-05-03 20:44 198K
20260503T18Z_MSC_RDPS_Thickness_IsbL-1000to0850_RLatLon0.09_PT017H.grib2 2026-05-03 20:44 264K
20260503T18Z_MSC_RDPS_TotalCloudCover_Sfc_RLatLon0.09_PT017H.grib2 2026-05-03 20:44 676K
20260503T18Z_MSC_RDPS_TotalTotalsIndex_Sfc_RLatLon0.09_PT017H.grib2 2026-05-03 20:44 2.4M
20260503T18Z_MSC_RDPS_UVIndex-ClearSky_Sfc_RLatLon0.09_PT017H.grib2 2026-05-03 20:44 118K
20260503T18Z_MSC_RDPS_UVIndex_Sfc_RLatLon0.09_PT017H.grib2 2026-05-03 20:44 279K
20260503T18Z_MSC_RDPS_UpwardLongwaveRadiationFlux_NTAtm_RLatLon0.09_PT017H.grib2 2026-05-03 20:44 497K
20260503T18Z_MSC_RDPS_UpwardShortwaveRadiationFlux_NTAtm_RLatLon0.09_PT017H.grib2 2026-05-03 20:44 261K
20260503T18Z_MSC_RDPS_VerticalVelocity_IsbL-0250_RLatLon0.09_PT017H.grib2 2026-05-03 20:44 444K
20260503T18Z_MSC_RDPS_VerticalVelocity_IsbL-0500_RLatLon0.09_PT017H.grib2 2026-05-03 20:44 558K
20260503T18Z_MSC_RDPS_VerticalVelocity_IsbL-0700_RLatLon0.09_PT017H.grib2 2026-05-03 20:44 632K
20260503T18Z_MSC_RDPS_VerticalVelocity_IsbL-0850_RLatLon0.09_PT017H.grib2 2026-05-03 20:44 718K
20260503T18Z_MSC_RDPS_VerticalWindShear_EtaL-6500_RLatLon0.09_PT017H.grib2 2026-05-03 20:44 1.2M
20260503T18Z_MSC_RDPS_WindChill_Sfc_RLatLon0.09_PT017H.grib2 2026-05-03 20:44 1.2M
20260503T18Z_MSC_RDPS_WindDir_AGL-10m_RLatLon0.09_PT017H.grib2 2026-05-03 20:44 1.0M
20260503T18Z_MSC_RDPS_WindDir_AGL-120m_RLatLon0.09_PT017H.grib2 2026-05-03 20:44 615K
20260503T18Z_MSC_RDPS_WindDir_AGL-40m_RLatLon0.09_PT017H.grib2 2026-05-03 20:44 651K
20260503T18Z_MSC_RDPS_WindDir_AGL-80m_RLatLon0.09_PT017H.grib2 2026-05-03 20:44 629K
20260503T18Z_MSC_RDPS_WindDir_IsbL-0001_RLatLon0.09_PT017H.grib2 2026-05-03 20:44 307K
20260503T18Z_MSC_RDPS_WindDir_IsbL-0005_RLatLon0.09_PT017H.grib2 2026-05-03 20:44 390K
20260503T18Z_MSC_RDPS_WindDir_IsbL-0010_RLatLon0.09_PT017H.grib2 2026-05-03 20:44 392K
20260503T18Z_MSC_RDPS_WindDir_IsbL-0020_RLatLon0.09_PT017H.grib2 2026-05-03 20:44 427K
20260503T18Z_MSC_RDPS_WindDir_IsbL-0030_RLatLon0.09_PT017H.grib2 2026-05-03 20:44 421K
20260503T18Z_MSC_RDPS_WindDir_IsbL-0050_RLatLon0.09_PT017H.grib2 2026-05-03 20:44 426K
20260503T18Z_MSC_RDPS_WindDir_IsbL-0100_RLatLon0.09_PT017H.grib2 2026-05-03 20:44 411K
20260503T18Z_MSC_RDPS_WindDir_IsbL-0150_RLatLon0.09_PT017H.grib2 2026-05-03 20:44 425K
20260503T18Z_MSC_RDPS_WindDir_IsbL-0175_RLatLon0.09_PT017H.grib2 2026-05-03 20:44 440K
20260503T18Z_MSC_RDPS_WindDir_IsbL-0200_RLatLon0.09_PT017H.grib2 2026-05-03 20:44 455K
20260503T18Z_MSC_RDPS_WindDir_IsbL-0225_RLatLon0.09_PT017H.grib2 2026-05-03 20:44 457K
20260503T18Z_MSC_RDPS_WindDir_IsbL-0250_RLatLon0.09_PT017H.grib2 2026-05-03 20:44 457K
20260503T18Z_MSC_RDPS_WindDir_IsbL-0275_RLatLon0.09_PT017H.grib2 2026-05-03 20:44 476K
20260503T18Z_MSC_RDPS_WindDir_IsbL-0300_RLatLon0.09_PT017H.grib2 2026-05-03 20:44 472K
20260503T18Z_MSC_RDPS_WindDir_IsbL-0350_RLatLon0.09_PT017H.grib2 2026-05-03 20:44 496K
20260503T18Z_MSC_RDPS_WindDir_IsbL-0400_RLatLon0.09_PT017H.grib2 2026-05-03 20:44 523K
20260503T18Z_MSC_RDPS_WindDir_IsbL-0450_RLatLon0.09_PT017H.grib2 2026-05-03 20:44 530K
20260503T18Z_MSC_RDPS_WindDir_IsbL-0500_RLatLon0.09_PT017H.grib2 2026-05-03 20:44 536K
20260503T18Z_MSC_RDPS_WindDir_IsbL-0550_RLatLon0.09_PT017H.grib2 2026-05-03 20:44 550K
20260503T18Z_MSC_RDPS_WindDir_IsbL-0600_RLatLon0.09_PT017H.grib2 2026-05-03 20:44 576K
20260503T18Z_MSC_RDPS_WindDir_IsbL-0650_RLatLon0.09_PT017H.grib2 2026-05-03 20:44 612K
20260503T18Z_MSC_RDPS_WindDir_IsbL-0700_RLatLon0.09_PT017H.grib2 2026-05-03 20:44 655K
20260503T18Z_MSC_RDPS_WindDir_IsbL-0750_RLatLon0.09_PT017H.grib2 2026-05-03 20:44 705K
20260503T18Z_MSC_RDPS_WindDir_IsbL-0800_RLatLon0.09_PT017H.grib2 2026-05-03 20:44 779K
20260503T18Z_MSC_RDPS_WindDir_IsbL-0850_RLatLon0.09_PT017H.grib2 2026-05-03 20:44 871K
20260503T18Z_MSC_RDPS_WindDir_IsbL-0875_RLatLon0.09_PT017H.grib2 2026-05-03 20:44 903K
20260503T18Z_MSC_RDPS_WindDir_IsbL-0900_RLatLon0.09_PT017H.grib2 2026-05-03 20:44 918K
20260503T18Z_MSC_RDPS_WindDir_IsbL-0925_RLatLon0.09_PT017H.grib2 2026-05-03 20:44 925K
20260503T18Z_MSC_RDPS_WindDir_IsbL-0950_RLatLon0.09_PT017H.grib2 2026-05-03 20:44 924K
20260503T18Z_MSC_RDPS_WindDir_IsbL-0970_RLatLon0.09_PT017H.grib2 2026-05-03 20:44 931K
20260503T18Z_MSC_RDPS_WindDir_IsbL-0985_RLatLon0.09_PT017H.grib2 2026-05-03 20:44 942K
20260503T18Z_MSC_RDPS_WindDir_IsbL-1000_RLatLon0.09_PT017H.grib2 2026-05-03 20:44 961K
20260503T18Z_MSC_RDPS_WindDir_IsbL-1015_RLatLon0.09_PT017H.grib2 2026-05-03 20:44 1.0M
20260503T18Z_MSC_RDPS_WindGust-Max_AGL-10m_RLatLon0.09_PT017H.grib2 2026-05-03 20:44 1.0M
20260503T18Z_MSC_RDPS_WindGust-Min_AGL-10m_RLatLon0.09_PT017H.grib2 2026-05-03 20:44 1.0M
20260503T18Z_MSC_RDPS_WindGust_AGL-10m_RLatLon0.09_PT017H.grib2 2026-05-03 20:44 1.0M
20260503T18Z_MSC_RDPS_WindSpeed_AGL-10m_RLatLon0.09_PT017H.grib2 2026-05-03 20:44 857K
20260503T18Z_MSC_RDPS_WindSpeed_AGL-120m_RLatLon0.09_PT017H.grib2 2026-05-03 20:44 553K
20260503T18Z_MSC_RDPS_WindSpeed_AGL-40m_RLatLon0.09_PT017H.grib2 2026-05-03 20:44 687K
20260503T18Z_MSC_RDPS_WindSpeed_AGL-80m_RLatLon0.09_PT017H.grib2 2026-05-03 20:44 554K
20260503T18Z_MSC_RDPS_WindSpeed_IsbL-0001_RLatLon0.09_PT017H.grib2 2026-05-03 20:44 251K
20260503T18Z_MSC_RDPS_WindSpeed_IsbL-0005_RLatLon0.09_PT017H.grib2 2026-05-03 20:44 383K
20260503T18Z_MSC_RDPS_WindSpeed_IsbL-0010_RLatLon0.09_PT017H.grib2 2026-05-03 20:44 397K
20260503T18Z_MSC_RDPS_WindSpeed_IsbL-0020_RLatLon0.09_PT017H.grib2 2026-05-03 20:44 322K
20260503T18Z_MSC_RDPS_WindSpeed_IsbL-0030_RLatLon0.09_PT017H.grib2 2026-05-03 20:44 322K
20260503T18Z_MSC_RDPS_WindSpeed_IsbL-0050_RLatLon0.09_PT017H.grib2 2026-05-03 20:44 352K
20260503T18Z_MSC_RDPS_WindSpeed_IsbL-0100_RLatLon0.09_PT017H.grib2 2026-05-03 20:44 448K
20260503T18Z_MSC_RDPS_WindSpeed_IsbL-0150_RLatLon0.09_PT017H.grib2 2026-05-03 20:44 387K
20260503T18Z_MSC_RDPS_WindSpeed_IsbL-0175_RLatLon0.09_PT017H.grib2 2026-05-03 20:44 431K
20260503T18Z_MSC_RDPS_WindSpeed_IsbL-0200_RLatLon0.09_PT017H.grib2 2026-05-03 20:44 445K
20260503T18Z_MSC_RDPS_WindSpeed_IsbL-0225_RLatLon0.09_PT017H.grib2 2026-05-03 20:44 452K
20260503T18Z_MSC_RDPS_WindSpeed_IsbL-0250_RLatLon0.09_PT017H.grib2 2026-05-03 20:44 456K
20260503T18Z_MSC_RDPS_WindSpeed_IsbL-0275_RLatLon0.09_PT017H.grib2 2026-05-03 20:44 475K
20260503T18Z_MSC_RDPS_WindSpeed_IsbL-0300_RLatLon0.09_PT017H.grib2 2026-05-03 20:44 472K
20260503T18Z_MSC_RDPS_WindSpeed_IsbL-0350_RLatLon0.09_PT017H.grib2 2026-05-03 20:44 482K
20260503T18Z_MSC_RDPS_WindSpeed_IsbL-0400_RLatLon0.09_PT017H.grib2 2026-05-03 20:44 488K
20260503T18Z_MSC_RDPS_WindSpeed_IsbL-0450_RLatLon0.09_PT017H.grib2 2026-05-03 20:44 473K
20260503T18Z_MSC_RDPS_WindSpeed_IsbL-0500_RLatLon0.09_PT017H.grib2 2026-05-03 20:44 471K
20260503T18Z_MSC_RDPS_WindSpeed_IsbL-0550_RLatLon0.09_PT017H.grib2 2026-05-03 20:44 588K
20260503T18Z_MSC_RDPS_WindSpeed_IsbL-0600_RLatLon0.09_PT017H.grib2 2026-05-03 20:44 597K
20260503T18Z_MSC_RDPS_WindSpeed_IsbL-0650_RLatLon0.09_PT017H.grib2 2026-05-03 20:44 616K
20260503T18Z_MSC_RDPS_WindSpeed_IsbL-0700_RLatLon0.09_PT017H.grib2 2026-05-03 20:44 639K
20260503T18Z_MSC_RDPS_WindSpeed_IsbL-0750_RLatLon0.09_PT017H.grib2 2026-05-03 20:44 715K
20260503T18Z_MSC_RDPS_WindSpeed_IsbL-0800_RLatLon0.09_PT017H.grib2 2026-05-03 20:44 770K
20260503T18Z_MSC_RDPS_WindSpeed_IsbL-0850_RLatLon0.09_PT017H.grib2 2026-05-03 20:44 835K
20260503T18Z_MSC_RDPS_WindSpeed_IsbL-0875_RLatLon0.09_PT017H.grib2 2026-05-03 20:44 856K
20260503T18Z_MSC_RDPS_WindSpeed_IsbL-0900_RLatLon0.09_PT017H.grib2 2026-05-03 20:44 868K
20260503T18Z_MSC_RDPS_WindSpeed_IsbL-0925_RLatLon0.09_PT017H.grib2 2026-05-03 20:44 879K
20260503T18Z_MSC_RDPS_WindSpeed_IsbL-0950_RLatLon0.09_PT017H.grib2 2026-05-03 20:44 875K
20260503T18Z_MSC_RDPS_WindSpeed_IsbL-0970_RLatLon0.09_PT017H.grib2 2026-05-03 20:44 874K
20260503T18Z_MSC_RDPS_WindSpeed_IsbL-0985_RLatLon0.09_PT017H.grib2 2026-05-03 20:44 869K
20260503T18Z_MSC_RDPS_WindSpeed_IsbL-1000_RLatLon0.09_PT017H.grib2 2026-05-03 20:44 865K
20260503T18Z_MSC_RDPS_WindSpeed_IsbL-1015_RLatLon0.09_PT017H.grib2 2026-05-03 20:44 856K
20260503T18Z_MSC_RDPS_WindU_AGL-10m_RLatLon0.09_PT017H.grib2 2026-05-03 20:44 439K
20260503T18Z_MSC_RDPS_WindU_AGL-120m_RLatLon0.09_PT017H.grib2 2026-05-03 20:44 547K
20260503T18Z_MSC_RDPS_WindU_AGL-40m_RLatLon0.09_PT017H.grib2 2026-05-03 20:44 549K
20260503T18Z_MSC_RDPS_WindU_AGL-80m_RLatLon0.09_PT017H.grib2 2026-05-03 20:44 548K
20260503T18Z_MSC_RDPS_WindU_IsbL-0001_RLatLon0.09_PT017H.grib2 2026-05-03 20:44 293K
20260503T18Z_MSC_RDPS_WindU_IsbL-0005_RLatLon0.09_PT017H.grib2 2026-05-03 20:44 283K
20260503T18Z_MSC_RDPS_WindU_IsbL-0010_RLatLon0.09_PT017H.grib2 2026-05-03 20:44 295K
20260503T18Z_MSC_RDPS_WindU_IsbL-0020_RLatLon0.09_PT017H.grib2 2026-05-03 20:44 352K
20260503T18Z_MSC_RDPS_WindU_IsbL-0030_RLatLon0.09_PT017H.grib2 2026-05-03 20:44 353K
20260503T18Z_MSC_RDPS_WindU_IsbL-0050_RLatLon0.09_PT017H.grib2 2026-05-03 20:44 381K
20260503T18Z_MSC_RDPS_WindU_IsbL-0100_RLatLon0.09_PT017H.grib2 2026-05-03 20:44 438K
20260503T18Z_MSC_RDPS_WindU_IsbL-0150_RLatLon0.09_PT017H.grib2 2026-05-03 20:44 402K
20260503T18Z_MSC_RDPS_WindU_IsbL-0175_RLatLon0.09_PT017H.grib2 2026-05-03 20:44 424K
20260503T18Z_MSC_RDPS_WindU_IsbL-0200_RLatLon0.09_PT017H.grib2 2026-05-03 20:44 340K
20260503T18Z_MSC_RDPS_WindU_IsbL-0225_RLatLon0.09_PT017H.grib2 2026-05-03 20:44 344K
20260503T18Z_MSC_RDPS_WindU_IsbL-0250_RLatLon0.09_PT017H.grib2 2026-05-03 20:44 345K
20260503T18Z_MSC_RDPS_WindU_IsbL-0275_RLatLon0.09_PT017H.grib2 2026-05-03 20:44 361K
20260503T18Z_MSC_RDPS_WindU_IsbL-0300_RLatLon0.09_PT017H.grib2 2026-05-03 20:44 357K
20260503T18Z_MSC_RDPS_WindU_IsbL-0350_RLatLon0.09_PT017H.grib2 2026-05-03 20:44 471K
20260503T18Z_MSC_RDPS_WindU_IsbL-0400_RLatLon0.09_PT017H.grib2 2026-05-03 20:44 478K
20260503T18Z_MSC_RDPS_WindU_IsbL-0450_RLatLon0.09_PT017H.grib2 2026-05-03 20:44 478K
20260503T18Z_MSC_RDPS_WindU_IsbL-0500_RLatLon0.09_PT017H.grib2 2026-05-03 20:44 477K
20260503T18Z_MSC_RDPS_WindU_IsbL-0550_RLatLon0.09_PT017H.grib2 2026-05-03 20:44 476K
20260503T18Z_MSC_RDPS_WindU_IsbL-0600_RLatLon0.09_PT017H.grib2 2026-05-03 20:44 484K
20260503T18Z_MSC_RDPS_WindU_IsbL-0650_RLatLon0.09_PT017H.grib2 2026-05-03 20:44 486K
20260503T18Z_MSC_RDPS_WindU_IsbL-0700_RLatLon0.09_PT017H.grib2 2026-05-03 20:44 507K
20260503T18Z_MSC_RDPS_WindU_IsbL-0750_RLatLon0.09_PT017H.grib2 2026-05-03 20:44 535K
20260503T18Z_MSC_RDPS_WindU_IsbL-0800_RLatLon0.09_PT017H.grib2 2026-05-03 20:44 583K
20260503T18Z_MSC_RDPS_WindU_IsbL-0850_RLatLon0.09_PT017H.grib2 2026-05-03 20:44 641K
20260503T18Z_MSC_RDPS_WindU_IsbL-0875_RLatLon0.09_PT017H.grib2 2026-05-03 20:44 660K
20260503T18Z_MSC_RDPS_WindU_IsbL-0900_RLatLon0.09_PT017H.grib2 2026-05-03 20:44 667K
20260503T18Z_MSC_RDPS_WindU_IsbL-0925_RLatLon0.09_PT017H.grib2 2026-05-03 20:44 673K
20260503T18Z_MSC_RDPS_WindU_IsbL-0950_RLatLon0.09_PT017H.grib2 2026-05-03 20:44 669K
20260503T18Z_MSC_RDPS_WindU_IsbL-0970_RLatLon0.09_PT017H.grib2 2026-05-03 20:44 666K
20260503T18Z_MSC_RDPS_WindU_IsbL-0985_RLatLon0.09_PT017H.grib2 2026-05-03 20:44 802K
20260503T18Z_MSC_RDPS_WindU_IsbL-1000_RLatLon0.09_PT017H.grib2 2026-05-03 20:44 799K
20260503T18Z_MSC_RDPS_WindU_IsbL-1015_RLatLon0.09_PT017H.grib2 2026-05-03 20:44 839K
20260503T18Z_MSC_RDPS_WindV_AGL-10m_RLatLon0.09_PT017H.grib2 2026-05-03 20:44 442K
20260503T18Z_MSC_RDPS_WindV_AGL-120m_RLatLon0.09_PT017H.grib2 2026-05-03 20:44 429K
20260503T18Z_MSC_RDPS_WindV_AGL-40m_RLatLon0.09_PT017H.grib2 2026-05-03 20:44 551K
20260503T18Z_MSC_RDPS_WindV_AGL-80m_RLatLon0.09_PT017H.grib2 2026-05-03 20:44 549K
20260503T18Z_MSC_RDPS_WindV_IsbL-0001_RLatLon0.09_PT017H.grib2 2026-05-03 20:44 247K
20260503T18Z_MSC_RDPS_WindV_IsbL-0005_RLatLon0.09_PT017H.grib2 2026-05-03 20:44 285K
20260503T18Z_MSC_RDPS_WindV_IsbL-0010_RLatLon0.09_PT017H.grib2 2026-05-03 20:44 295K
20260503T18Z_MSC_RDPS_WindV_IsbL-0020_RLatLon0.09_PT017H.grib2 2026-05-03 20:44 314K
20260503T18Z_MSC_RDPS_WindV_IsbL-0030_RLatLon0.09_PT017H.grib2 2026-05-03 20:44 315K
20260503T18Z_MSC_RDPS_WindV_IsbL-0050_RLatLon0.09_PT017H.grib2 2026-05-03 20:44 345K
20260503T18Z_MSC_RDPS_WindV_IsbL-0100_RLatLon0.09_PT017H.grib2 2026-05-03 20:44 341K
20260503T18Z_MSC_RDPS_WindV_IsbL-0150_RLatLon0.09_PT017H.grib2 2026-05-03 20:44 402K
20260503T18Z_MSC_RDPS_WindV_IsbL-0175_RLatLon0.09_PT017H.grib2 2026-05-03 20:44 327K
20260503T18Z_MSC_RDPS_WindV_IsbL-0200_RLatLon0.09_PT017H.grib2 2026-05-03 20:44 339K
20260503T18Z_MSC_RDPS_WindV_IsbL-0225_RLatLon0.09_PT017H.grib2 2026-05-03 20:44 369K
20260503T18Z_MSC_RDPS_WindV_IsbL-0250_RLatLon0.09_PT017H.grib2 2026-05-03 20:44 370K
20260503T18Z_MSC_RDPS_WindV_IsbL-0275_RLatLon0.09_PT017H.grib2 2026-05-03 20:44 384K
20260503T18Z_MSC_RDPS_WindV_IsbL-0300_RLatLon0.09_PT017H.grib2 2026-05-03 20:44 381K
20260503T18Z_MSC_RDPS_WindV_IsbL-0350_RLatLon0.09_PT017H.grib2 2026-05-03 20:44 388K
20260503T18Z_MSC_RDPS_WindV_IsbL-0400_RLatLon0.09_PT017H.grib2 2026-05-03 20:44 369K
20260503T18Z_MSC_RDPS_WindV_IsbL-0450_RLatLon0.09_PT017H.grib2 2026-05-03 20:44 370K
20260503T18Z_MSC_RDPS_WindV_IsbL-0500_RLatLon0.09_PT017H.grib2 2026-05-03 20:44 474K
20260503T18Z_MSC_RDPS_WindV_IsbL-0550_RLatLon0.09_PT017H.grib2 2026-05-03 20:44 474K
20260503T18Z_MSC_RDPS_WindV_IsbL-0600_RLatLon0.09_PT017H.grib2 2026-05-03 20:44 481K
20260503T18Z_MSC_RDPS_WindV_IsbL-0650_RLatLon0.09_PT017H.grib2 2026-05-03 20:44 498K
20260503T18Z_MSC_RDPS_WindV_IsbL-0700_RLatLon0.09_PT017H.grib2 2026-05-03 20:44 517K
20260503T18Z_MSC_RDPS_WindV_IsbL-0750_RLatLon0.09_PT017H.grib2 2026-05-03 20:44 545K
20260503T18Z_MSC_RDPS_WindV_IsbL-0800_RLatLon0.09_PT017H.grib2 2026-05-03 20:44 590K
20260503T18Z_MSC_RDPS_WindV_IsbL-0850_RLatLon0.09_PT017H.grib2 2026-05-03 20:44 646K
20260503T18Z_MSC_RDPS_WindV_IsbL-0875_RLatLon0.09_PT017H.grib2 2026-05-03 20:44 657K
20260503T18Z_MSC_RDPS_WindV_IsbL-0900_RLatLon0.09_PT017H.grib2 2026-05-03 20:44 666K
20260503T18Z_MSC_RDPS_WindV_IsbL-0925_RLatLon0.09_PT017H.grib2 2026-05-03 20:44 674K
20260503T18Z_MSC_RDPS_WindV_IsbL-0950_RLatLon0.09_PT017H.grib2 2026-05-03 20:44 671K
20260503T18Z_MSC_RDPS_WindV_IsbL-0970_RLatLon0.09_PT017H.grib2 2026-05-03 20:44 669K
20260503T18Z_MSC_RDPS_WindV_IsbL-0985_RLatLon0.09_PT017H.grib2 2026-05-03 20:44 665K
20260503T18Z_MSC_RDPS_WindV_IsbL-1000_RLatLon0.09_PT017H.grib2 2026-05-03 20:44 803K
20260503T18Z_MSC_RDPS_WindV_IsbL-1015_RLatLon0.09_PT017H.grib2 2026-05-03 20:44 795K